Simultaneous Nadir Overpasses (SNOs) Predictions

Prediction of SNOs between METOP-C and LANDSAT-8 Satellite Orbit:

Table of predicted SNOs for the next 14.0 days since TLE Epoch: 8/8/2020
Index Date (METOP-C) Time (METOP-C) Lat,Lon (METOP-C) SZA (METOP-C ) Date (LANDSAT-8) Time (LANDSAT-8) Lat,Lon (LANDSAT-8) SZA (LANDSAT-8 ) Distance(km) Time Diff (sec)
1 08/10/2020 20:04:16 -81.13, 98.96 112.11 08/10/2020 20:05:22 -81.13, 98.90 112.09 1.00 66
2 08/10/2020 20:54:57 81.14, -93.55 67.93 08/10/2020 20:54:48 81.14, -93.38 67.94 2.90 9
3 08/13/2020 15:38:37 -81.13, 165.40 111.25 08/13/2020 15:39:38 -81.13, 165.23 111.24 3.14 61
4 08/13/2020 16:29:17 81.15, -26.75 68.83 08/13/2020 16:29:03 81.15, -26.73 68.83 0.47 14
5 08/16/2020 11:12:58 -81.13,-128.17 110.35 08/16/2020 11:13:53 -81.14,-128.11 110.32 1.18 55
6 08/16/2020 12:03:37 81.16, 40.03 69.77 08/16/2020 12:03:18 81.16, 39.91 69.75 2.09 19
7 08/19/2020 06:47:18 -81.13, -61.75 109.43 08/19/2020 06:48:08 -81.13, -61.84 109.42 1.62 50
8 08/19/2020 07:37:58 81.15, 106.04 70.64 08/19/2020 07:37:33 81.15, 106.15 70.64 1.95 25
9 08/22/2020 02:21:39 -81.13, 4.66 108.48 08/22/2020 02:22:23 -81.14, 4.78 108.45 2.11 44
